Index of /20260424/WXO-DD/model_rdps/10km/00/083
Name Last modified Size Description
Parent Directory -
20260424T00Z_MSC_RDPS_AbsoluteVorticity_IsbL-0250_RLatLon0.09_PT083H.grib2 2026-04-24 03:04 605K
20260424T00Z_MSC_RDPS_AbsoluteVorticity_IsbL-0500_RLatLon0.09_PT083H.grib2 2026-04-24 03:04 561K
20260424T00Z_MSC_RDPS_AbsoluteVorticity_IsbL-0700_RLatLon0.09_PT083H.grib2 2026-04-24 03:04 612K
20260424T00Z_MSC_RDPS_AbsoluteVorticity_IsbL-0850_RLatLon0.09_PT083H.grib2 2026-04-24 03:04 782K
20260424T00Z_MSC_RDPS_AirTemp_AGL-120m_RLatLon0.09_PT083H.grib2 2026-04-24 03:04 383K
20260424T00Z_MSC_RDPS_AirTemp_AGL-2m_RLatLon0.09_PT083H.grib2 2026-04-24 03:04 647K
20260424T00Z_MSC_RDPS_AirTemp_AGL-40m_RLatLon0.09_PT083H.grib2 2026-04-24 03:04 415K
20260424T00Z_MSC_RDPS_AirTemp_AGL-80m_RLatLon0.09_PT083H.grib2 2026-04-24 03:04 391K
20260424T00Z_MSC_RDPS_AirTemp_IsbL-0001_RLatLon0.09_PT083H.grib2 2026-04-24 03:04 257K
20260424T00Z_MSC_RDPS_AirTemp_IsbL-0005_RLatLon0.09_PT083H.grib2 2026-04-24 03:04 291K
20260424T00Z_MSC_RDPS_AirTemp_IsbL-0010_RLatLon0.09_PT083H.grib2 2026-04-24 03:04 305K
20260424T00Z_MSC_RDPS_AirTemp_IsbL-0020_RLatLon0.09_PT083H.grib2 2026-04-24 03:04 325K
20260424T00Z_MSC_RDPS_AirTemp_IsbL-0030_RLatLon0.09_PT083H.grib2 2026-04-24 03:04 344K
20260424T00Z_MSC_RDPS_AirTemp_IsbL-0050_RLatLon0.09_PT083H.grib2 2026-04-24 03:04 321K
20260424T00Z_MSC_RDPS_AirTemp_IsbL-0100_RLatLon0.09_PT083H.grib2 2026-04-24 03:04 422K
20260424T00Z_MSC_RDPS_AirTemp_IsbL-0150_RLatLon0.09_PT083H.grib2 2026-04-24 03:04 412K
20260424T00Z_MSC_RDPS_AirTemp_IsbL-0175_RLatLon0.09_PT083H.grib2 2026-04-24 03:04 410K
20260424T00Z_MSC_RDPS_AirTemp_IsbL-0200_RLatLon0.09_PT083H.grib2 2026-04-24 03:04 415K
20260424T00Z_MSC_RDPS_AirTemp_IsbL-0225_RLatLon0.09_PT083H.grib2 2026-04-24 03:04 413K
20260424T00Z_MSC_RDPS_AirTemp_IsbL-0250_RLatLon0.09_PT083H.grib2 2026-04-24 03:04 420K
20260424T00Z_MSC_RDPS_AirTemp_IsbL-0275_RLatLon0.09_PT083H.grib2 2026-04-24 03:04 401K
20260424T00Z_MSC_RDPS_AirTemp_IsbL-0300_RLatLon0.09_PT083H.grib2 2026-04-24 03:04 408K
20260424T00Z_MSC_RDPS_AirTemp_IsbL-0350_RLatLon0.09_PT083H.grib2 2026-04-24 03:04 420K
20260424T00Z_MSC_RDPS_AirTemp_IsbL-0400_RLatLon0.09_PT083H.grib2 2026-04-24 03:04 419K
20260424T00Z_MSC_RDPS_AirTemp_IsbL-0450_RLatLon0.09_PT083H.grib2 2026-04-24 03:04 427K
20260424T00Z_MSC_RDPS_AirTemp_IsbL-0500_RLatLon0.09_PT083H.grib2 2026-04-24 03:04 404K
20260424T00Z_MSC_RDPS_AirTemp_IsbL-0550_RLatLon0.09_PT083H.grib2 2026-04-24 03:04 421K
20260424T00Z_MSC_RDPS_AirTemp_IsbL-0600_RLatLon0.09_PT083H.grib2 2026-04-24 03:04 436K
20260424T00Z_MSC_RDPS_AirTemp_IsbL-0650_RLatLon0.09_PT083H.grib2 2026-04-24 03:04 450K
20260424T00Z_MSC_RDPS_AirTemp_IsbL-0700_RLatLon0.09_PT083H.grib2 2026-04-24 03:04 477K
20260424T00Z_MSC_RDPS_AirTemp_IsbL-0750_RLatLon0.09_PT083H.grib2 2026-04-24 03:04 407K
20260424T00Z_MSC_RDPS_AirTemp_IsbL-0800_RLatLon0.09_PT083H.grib2 2026-04-24 03:04 459K
20260424T00Z_MSC_RDPS_AirTemp_IsbL-0850_RLatLon0.09_PT083H.grib2 2026-04-24 03:04 507K
20260424T00Z_MSC_RDPS_AirTemp_IsbL-0875_RLatLon0.09_PT083H.grib2 2026-04-24 03:04 523K
20260424T00Z_MSC_RDPS_AirTemp_IsbL-0900_RLatLon0.09_PT083H.grib2 2026-04-24 03:04 527K
20260424T00Z_MSC_RDPS_AirTemp_IsbL-0925_RLatLon0.09_PT083H.grib2 2026-04-24 03:04 527K
20260424T00Z_MSC_RDPS_AirTemp_IsbL-0950_RLatLon0.09_PT083H.grib2 2026-04-24 03:04 528K
20260424T00Z_MSC_RDPS_AirTemp_IsbL-0970_RLatLon0.09_PT083H.grib2 2026-04-24 03:04 529K
20260424T00Z_MSC_RDPS_AirTemp_IsbL-0985_RLatLon0.09_PT083H.grib2 2026-04-24 03:04 523K
20260424T00Z_MSC_RDPS_AirTemp_IsbL-1000_RLatLon0.09_PT083H.grib2 2026-04-24 03:04 505K
20260424T00Z_MSC_RDPS_AirTemp_IsbL-1015_RLatLon0.09_PT083H.grib2 2026-04-24 03:04 497K
20260424T00Z_MSC_RDPS_Albedo_Sfc_RLatLon0.09_PT083H.grib2 2026-04-24 03:04 161K
20260424T00Z_MSC_RDPS_CAPE_Sfc_RLatLon0.09_PT083H.grib2 2026-04-24 03:04 1.6M
20260424T00Z_MSC_RDPS_CIN_Sfc_RLatLon0.09_PT083H.grib2 2026-04-24 03:04 1.1M
20260424T00Z_MSC_RDPS_CloudWater_EAtm_RLatLon0.09_PT083H.grib2 2026-04-24 03:04 219K
20260424T00Z_MSC_RDPS_ConvectivePrecip-Accum_Sfc_RLatLon0.09_PT083H.grib2 2026-04-24 03:04 1.3M
20260424T00Z_MSC_RDPS_DewPointDepression_AGL-2m_RLatLon0.09_PT083H.grib2 2026-04-24 03:04 394K
20260424T00Z_MSC_RDPS_DewPointDepression_IsbL-0001_RLatLon0.09_PT083H.grib2 2026-04-24 03:04 193
20260424T00Z_MSC_RDPS_DewPointDepression_IsbL-0005_RLatLon0.09_PT083H.grib2 2026-04-24 03:04 193
20260424T00Z_MSC_RDPS_DewPointDepression_IsbL-0010_RLatLon0.09_PT083H.grib2 2026-04-24 03:04 193
20260424T00Z_MSC_RDPS_DewPointDepression_IsbL-0020_RLatLon0.09_PT083H.grib2 2026-04-24 03:04 193
20260424T00Z_MSC_RDPS_DewPointDepression_IsbL-0030_RLatLon0.09_PT083H.grib2 2026-04-24 03:04 542
20260424T00Z_MSC_RDPS_DewPointDepression_IsbL-0050_RLatLon0.09_PT083H.grib2 2026-04-24 03:04 90K
20260424T00Z_MSC_RDPS_DewPointDepression_IsbL-0100_RLatLon0.09_PT083H.grib2 2026-04-24 03:04 124K
20260424T00Z_MSC_RDPS_DewPointDepression_IsbL-0150_RLatLon0.09_PT083H.grib2 2026-04-24 03:04 145K
20260424T00Z_MSC_RDPS_DewPointDepression_IsbL-0175_RLatLon0.09_PT083H.grib2 2026-04-24 03:04 186K
20260424T00Z_MSC_RDPS_DewPointDepression_IsbL-0200_RLatLon0.09_PT083H.grib2 2026-04-24 03:04 220K
20260424T00Z_MSC_RDPS_DewPointDepression_IsbL-0225_RLatLon0.09_PT083H.grib2 2026-04-24 03:04 254K
20260424T00Z_MSC_RDPS_DewPointDepression_IsbL-0250_RLatLon0.09_PT083H.grib2 2026-04-24 03:04 292K
20260424T00Z_MSC_RDPS_DewPointDepression_IsbL-0275_RLatLon0.09_PT083H.grib2 2026-04-24 03:04 300K
20260424T00Z_MSC_RDPS_DewPointDepression_IsbL-0300_RLatLon0.09_PT083H.grib2 2026-04-24 03:04 318K
20260424T00Z_MSC_RDPS_DewPointDepression_IsbL-0350_RLatLon0.09_PT083H.grib2 2026-04-24 03:04 326K
20260424T00Z_MSC_RDPS_DewPointDepression_IsbL-0400_RLatLon0.09_PT083H.grib2 2026-04-24 03:04 345K
20260424T00Z_MSC_RDPS_DewPointDepression_IsbL-0450_RLatLon0.09_PT083H.grib2 2026-04-24 03:04 354K
20260424T00Z_MSC_RDPS_DewPointDepression_IsbL-0500_RLatLon0.09_PT083H.grib2 2026-04-24 03:04 358K
20260424T00Z_MSC_RDPS_DewPointDepression_IsbL-0550_RLatLon0.09_PT083H.grib2 2026-04-24 03:04 367K
20260424T00Z_MSC_RDPS_DewPointDepression_IsbL-0600_RLatLon0.09_PT083H.grib2 2026-04-24 03:04 375K
20260424T00Z_MSC_RDPS_DewPointDepression_IsbL-0650_RLatLon0.09_PT083H.grib2 2026-04-24 03:04 380K
20260424T00Z_MSC_RDPS_DewPointDepression_IsbL-0700_RLatLon0.09_PT083H.grib2 2026-04-24 03:04 392K
20260424T00Z_MSC_RDPS_DewPointDepression_IsbL-0750_RLatLon0.09_PT083H.grib2 2026-04-24 03:04 416K
20260424T00Z_MSC_RDPS_DewPointDepression_IsbL-0800_RLatLon0.09_PT083H.grib2 2026-04-24 03:04 456K
20260424T00Z_MSC_RDPS_DewPointDepression_IsbL-0850_RLatLon0.09_PT083H.grib2 2026-04-24 03:04 481K
20260424T00Z_MSC_RDPS_DewPointDepression_IsbL-0875_RLatLon0.09_PT083H.grib2 2026-04-24 03:04 477K
20260424T00Z_MSC_RDPS_DewPointDepression_IsbL-0900_RLatLon0.09_PT083H.grib2 2026-04-24 03:04 465K
20260424T00Z_MSC_RDPS_DewPointDepression_IsbL-0925_RLatLon0.09_PT083H.grib2 2026-04-24 03:04 454K
20260424T00Z_MSC_RDPS_DewPointDepression_IsbL-0950_RLatLon0.09_PT083H.grib2 2026-04-24 03:04 445K
20260424T00Z_MSC_RDPS_DewPointDepression_IsbL-0970_RLatLon0.09_PT083H.grib2 2026-04-24 03:04 436K
20260424T00Z_MSC_RDPS_DewPointDepression_IsbL-0985_RLatLon0.09_PT083H.grib2 2026-04-24 03:04 434K
20260424T00Z_MSC_RDPS_DewPointDepression_IsbL-1000_RLatLon0.09_PT083H.grib2 2026-04-24 03:04 431K
20260424T00Z_MSC_RDPS_DewPointDepression_IsbL-1015_RLatLon0.09_PT083H.grib2 2026-04-24 03:04 424K
20260424T00Z_MSC_RDPS_DewPoint_AGL-2m_RLatLon0.09_PT083H.grib2 2026-04-24 03:04 314K
20260424T00Z_MSC_RDPS_DownwardLongwaveRadiationFlux-Accum_Sfc_RLatLon0.09_PT083H.grib2 2026-04-24 03:04 446K
20260424T00Z_MSC_RDPS_DownwardShortwaveRadiationFlux-Accum_NTAtm_RLatLon0.09_PT083H.grib2 2026-04-24 03:04 99K
20260424T00Z_MSC_RDPS_DownwardShortwaveRadiationFlux-Accum_Sfc_RLatLon0.09_PT083H.grib2 2026-04-24 03:04 635K
20260424T00Z_MSC_RDPS_FreezingRain-Accum1h_Sfc_RLatLon0.09_PT083H.grib2 2026-04-24 03:04 59K
20260424T00Z_MSC_RDPS_FreezingRain-Accum_Sfc_RLatLon0.09_PT083H.grib2 2026-04-24 03:04 186K
20260424T00Z_MSC_RDPS_GeopotentialHeight_IsbL-0001_RLatLon0.09_PT083H.grib2 2026-04-24 03:04 238K
20260424T00Z_MSC_RDPS_GeopotentialHeight_IsbL-0005_RLatLon0.09_PT083H.grib2 2026-04-24 03:04 339K
20260424T00Z_MSC_RDPS_GeopotentialHeight_IsbL-0010_RLatLon0.09_PT083H.grib2 2026-04-24 03:04 308K
20260424T00Z_MSC_RDPS_GeopotentialHeight_IsbL-0020_RLatLon0.09_PT083H.grib2 2026-04-24 03:04 308K
20260424T00Z_MSC_RDPS_GeopotentialHeight_IsbL-0030_RLatLon0.09_PT083H.grib2 2026-04-24 03:04 407K
20260424T00Z_MSC_RDPS_GeopotentialHeight_IsbL-0050_RLatLon0.09_PT083H.grib2 2026-04-24 03:04 309K
20260424T00Z_MSC_RDPS_GeopotentialHeight_IsbL-0100_RLatLon0.09_PT083H.grib2 2026-04-24 03:04 288K
20260424T00Z_MSC_RDPS_GeopotentialHeight_IsbL-0150_RLatLon0.09_PT083H.grib2 2026-04-24 03:04 227K
20260424T00Z_MSC_RDPS_GeopotentialHeight_IsbL-0175_RLatLon0.09_PT083H.grib2 2026-04-24 03:04 229K
20260424T00Z_MSC_RDPS_GeopotentialHeight_IsbL-0200_RLatLon0.09_PT083H.grib2 2026-04-24 03:04 232K
20260424T00Z_MSC_RDPS_GeopotentialHeight_IsbL-0225_RLatLon0.09_PT083H.grib2 2026-04-24 03:04 265K
20260424T00Z_MSC_RDPS_GeopotentialHeight_IsbL-0250_RLatLon0.09_PT083H.grib2 2026-04-24 03:04 266K
20260424T00Z_MSC_RDPS_GeopotentialHeight_IsbL-0275_RLatLon0.09_PT083H.grib2 2026-04-24 03:04 234K
20260424T00Z_MSC_RDPS_GeopotentialHeight_IsbL-0300_RLatLon0.09_PT083H.grib2 2026-04-24 03:04 234K
20260424T00Z_MSC_RDPS_GeopotentialHeight_IsbL-0350_RLatLon0.09_PT083H.grib2 2026-04-24 03:04 230K
20260424T00Z_MSC_RDPS_GeopotentialHeight_IsbL-0400_RLatLon0.09_PT083H.grib2 2026-04-24 03:04 227K
20260424T00Z_MSC_RDPS_GeopotentialHeight_IsbL-0450_RLatLon0.09_PT083H.grib2 2026-04-24 03:04 296K
20260424T00Z_MSC_RDPS_GeopotentialHeight_IsbL-0500_RLatLon0.09_PT083H.grib2 2026-04-24 03:04 291K
20260424T00Z_MSC_RDPS_GeopotentialHeight_IsbL-0550_RLatLon0.09_PT083H.grib2 2026-04-24 03:04 286K
20260424T00Z_MSC_RDPS_GeopotentialHeight_IsbL-0600_RLatLon0.09_PT083H.grib2 2026-04-24 03:04 284K
20260424T00Z_MSC_RDPS_GeopotentialHeight_IsbL-0650_RLatLon0.09_PT083H.grib2 2026-04-24 03:04 282K
20260424T00Z_MSC_RDPS_GeopotentialHeight_IsbL-0700_RLatLon0.09_PT083H.grib2 2026-04-24 03:04 280K
20260424T00Z_MSC_RDPS_GeopotentialHeight_IsbL-0750_RLatLon0.09_PT083H.grib2 2026-04-24 03:04 253K
20260424T00Z_MSC_RDPS_GeopotentialHeight_IsbL-0800_RLatLon0.09_PT083H.grib2 2026-04-24 03:04 260K
20260424T00Z_MSC_RDPS_GeopotentialHeight_IsbL-0850_RLatLon0.09_PT083H.grib2 2026-04-24 03:04 268K
20260424T00Z_MSC_RDPS_GeopotentialHeight_IsbL-0875_RLatLon0.09_PT083H.grib2 2026-04-24 03:04 271K
20260424T00Z_MSC_RDPS_GeopotentialHeight_IsbL-0900_RLatLon0.09_PT083H.grib2 2026-04-24 03:04 274K
20260424T00Z_MSC_RDPS_GeopotentialHeight_IsbL-0925_RLatLon0.09_PT083H.grib2 2026-04-24 03:04 277K
20260424T00Z_MSC_RDPS_GeopotentialHeight_IsbL-0950_RLatLon0.09_PT083H.grib2 2026-04-24 03:04 279K
20260424T00Z_MSC_RDPS_GeopotentialHeight_IsbL-0970_RLatLon0.09_PT083H.grib2 2026-04-24 03:04 284K
20260424T00Z_MSC_RDPS_GeopotentialHeight_IsbL-0985_RLatLon0.09_PT083H.grib2 2026-04-24 03:04 290K
20260424T00Z_MSC_RDPS_GeopotentialHeight_IsbL-1000_RLatLon0.09_PT083H.grib2 2026-04-24 03:04 301K
20260424T00Z_MSC_RDPS_GeopotentialHeight_IsbL-1015_RLatLon0.09_PT083H.grib2 2026-04-24 03:04 313K
20260424T00Z_MSC_RDPS_Humidex_Sfc_RLatLon0.09_PT083H.grib2 2026-04-24 03:04 2.4M
20260424T00Z_MSC_RDPS_IcePellets-Accum1h_Sfc_RLatLon0.09_PT083H.grib2 2026-04-24 03:04 14K
20260424T00Z_MSC_RDPS_IcePellets-Accum_Sfc_RLatLon0.09_PT083H.grib2 2026-04-24 03:04 73K
20260424T00Z_MSC_RDPS_KIndex_Sfc_RLatLon0.09_PT083H.grib2 2026-04-24 03:04 2.5M
20260424T00Z_MSC_RDPS_LatentHeatNetFlux_Sfc_RLatLon0.09_PT083H.grib2 2026-04-24 03:04 320K
20260424T00Z_MSC_RDPS_LiftedIndex-MU-VT_IsbL-0500_RLatLon0.09_PT083H.grib2 2026-04-24 03:04 2.4M
20260424T00Z_MSC_RDPS_NetLongwaveRadiationFlux-Accum_Sfc_RLatLon0.09_PT083H.grib2 2026-04-24 03:04 493K
20260424T00Z_MSC_RDPS_NetShortwaveRadiationFlux-Accum_Sfc_RLatLon0.09_PT083H.grib2 2026-04-24 03:04 640K
20260424T00Z_MSC_RDPS_PlanetaryBoundaryLayerHeight_Sfc_RLatLon0.09_PT083H.grib2 2026-04-24 03:04 1.1M
20260424T00Z_MSC_RDPS_Precip-Accum1h_Sfc_RLatLon0.09_PT083H.grib2 2026-04-24 03:04 1.3M
20260424T00Z_MSC_RDPS_Precip-Accum_Sfc_RLatLon0.09_PT083H.grib2 2026-04-24 03:04 2.3M
20260424T00Z_MSC_RDPS_PrecipRate_Sfc_RLatLon0.09_PT083H.grib2 2026-04-24 03:04 185K
20260424T00Z_MSC_RDPS_PrecipType-Instant_Sfc_RLatLon0.09_PT083H.grib2 2026-04-24 03:04 612K
20260424T00Z_MSC_RDPS_Pressure-Trend3h_Sfc_RLatLon0.09_PT083H.grib2 2026-04-24 03:04 1.2M
20260424T00Z_MSC_RDPS_Pressure_MSL_RLatLon0.09_PT083H.grib2 2026-04-24 03:04 325K
20260424T00Z_MSC_RDPS_Pressure_PVU-1.5_RLatLon0.09_PT083H.grib2 2026-04-24 03:04 2.3M
20260424T00Z_MSC_RDPS_Pressure_PVU-1_RLatLon0.09_PT083H.grib2 2026-04-24 03:04 2.4M
20260424T00Z_MSC_RDPS_Pressure_PVU-2_RLatLon0.09_PT083H.grib2 2026-04-24 03:04 2.3M
20260424T00Z_MSC_RDPS_Pressure_Sfc_RLatLon0.09_PT083H.grib2 2026-04-24 03:04 500K
20260424T00Z_MSC_RDPS_RadiativeTemp_Sfc_RLatLon0.09_PT083H.grib2 2026-04-24 03:04 307K
20260424T00Z_MSC_RDPS_Rain-Accum1h_Sfc_RLatLon0.09_PT083H.grib2 2026-04-24 03:04 633K
20260424T00Z_MSC_RDPS_Rain-Accum_Sfc_RLatLon0.09_PT083H.grib2 2026-04-24 03:04 1.7M
20260424T00Z_MSC_RDPS_RelativeHumidity_AGL-2m_RLatLon0.09_PT083H.grib2 2026-04-24 03:04 1.0M
20260424T00Z_MSC_RDPS_RelativeHumidity_IsbL-0010_RLatLon0.09_PT083H.grib2 2026-04-24 03:04 620K
20260424T00Z_MSC_RDPS_RelativeHumidity_IsbL-0020_RLatLon0.09_PT083H.grib2 2026-04-24 03:04 647K
20260424T00Z_MSC_RDPS_RelativeHumidity_IsbL-0030_RLatLon0.09_PT083H.grib2 2026-04-24 03:04 544K
20260424T00Z_MSC_RDPS_RelativeHumidity_IsbL-0050_RLatLon0.09_PT083H.grib2 2026-04-24 03:04 330K
20260424T00Z_MSC_RDPS_RelativeHumidity_IsbL-0100_RLatLon0.09_PT083H.grib2 2026-04-24 03:04 273K
20260424T00Z_MSC_RDPS_RelativeHumidity_IsbL-0150_RLatLon0.09_PT083H.grib2 2026-04-24 03:04 394K
20260424T00Z_MSC_RDPS_RelativeHumidity_IsbL-0175_RLatLon0.09_PT083H.grib2 2026-04-24 03:04 479K
20260424T00Z_MSC_RDPS_RelativeHumidity_IsbL-0200_RLatLon0.09_PT083H.grib2 2026-04-24 03:04 557K
20260424T00Z_MSC_RDPS_RelativeHumidity_IsbL-0225_RLatLon0.09_PT083H.grib2 2026-04-24 03:04 618K
20260424T00Z_MSC_RDPS_RelativeHumidity_IsbL-0250_RLatLon0.09_PT083H.grib2 2026-04-24 03:04 686K
20260424T00Z_MSC_RDPS_RelativeHumidity_IsbL-0275_RLatLon0.09_PT083H.grib2 2026-04-24 03:04 709K
20260424T00Z_MSC_RDPS_RelativeHumidity_IsbL-0300_RLatLon0.09_PT083H.grib2 2026-04-24 03:04 752K
20260424T00Z_MSC_RDPS_RelativeHumidity_IsbL-0350_RLatLon0.09_PT083H.grib2 2026-04-24 03:04 775K
20260424T00Z_MSC_RDPS_RelativeHumidity_IsbL-0400_RLatLon0.09_PT083H.grib2 2026-04-24 03:04 798K
20260424T00Z_MSC_RDPS_RelativeHumidity_IsbL-0450_RLatLon0.09_PT083H.grib2 2026-04-24 03:04 810K
20260424T00Z_MSC_RDPS_RelativeHumidity_IsbL-0500_RLatLon0.09_PT083H.grib2 2026-04-24 03:04 819K
20260424T00Z_MSC_RDPS_RelativeHumidity_IsbL-0550_RLatLon0.09_PT083H.grib2 2026-04-24 03:04 834K
20260424T00Z_MSC_RDPS_RelativeHumidity_IsbL-0600_RLatLon0.09_PT083H.grib2 2026-04-24 03:04 849K
20260424T00Z_MSC_RDPS_RelativeHumidity_IsbL-0650_RLatLon0.09_PT083H.grib2 2026-04-24 03:04 860K
20260424T00Z_MSC_RDPS_RelativeHumidity_IsbL-0700_RLatLon0.09_PT083H.grib2 2026-04-24 03:04 893K
20260424T00Z_MSC_RDPS_RelativeHumidity_IsbL-0750_RLatLon0.09_PT083H.grib2 2026-04-24 03:04 938K
20260424T00Z_MSC_RDPS_RelativeHumidity_IsbL-0800_RLatLon0.09_PT083H.grib2 2026-04-24 03:04 1.0M
20260424T00Z_MSC_RDPS_RelativeHumidity_IsbL-0850_RLatLon0.09_PT083H.grib2 2026-04-24 03:04 1.1M
20260424T00Z_MSC_RDPS_RelativeHumidity_IsbL-0875_RLatLon0.09_PT083H.grib2 2026-04-24 03:04 1.1M
20260424T00Z_MSC_RDPS_RelativeHumidity_IsbL-0900_RLatLon0.09_PT083H.grib2 2026-04-24 03:04 1.1M
20260424T00Z_MSC_RDPS_RelativeHumidity_IsbL-0925_RLatLon0.09_PT083H.grib2 2026-04-24 03:04 1.1M
20260424T00Z_MSC_RDPS_RelativeHumidity_IsbL-0950_RLatLon0.09_PT083H.grib2 2026-04-24 03:04 1.1M
20260424T00Z_MSC_RDPS_RelativeHumidity_IsbL-0970_RLatLon0.09_PT083H.grib2 2026-04-24 03:04 1.1M
20260424T00Z_MSC_RDPS_RelativeHumidity_IsbL-0985_RLatLon0.09_PT083H.grib2 2026-04-24 03:04 1.0M
20260424T00Z_MSC_RDPS_RelativeHumidity_IsbL-1000_RLatLon0.09_PT083H.grib2 2026-04-24 03:04 1.0M
20260424T00Z_MSC_RDPS_RelativeHumidity_IsbL-1015_RLatLon0.09_PT083H.grib2 2026-04-24 03:04 1.0M
20260424T00Z_MSC_RDPS_Runoff-Accum_Sfc_RLatLon0.09_PT083H.grib2 2026-04-24 03:04 83K
20260424T00Z_MSC_RDPS_SWEATIndex_Sfc_RLatLon0.09_PT083H.grib2 2026-04-24 03:04 2.4M
20260424T00Z_MSC_RDPS_SeeingIndex_EAtm_RLatLon0.09_PT083H.grib2 2026-04-24 03:04 1.1M
20260424T00Z_MSC_RDPS_SensibleHeatNetFlux_Sfc_RLatLon0.09_PT083H.grib2 2026-04-24 03:04 301K
20260424T00Z_MSC_RDPS_ShowalterIndex_IsbL-0500_RLatLon0.09_PT083H.grib2 2026-04-24 03:04 2.6M
20260424T00Z_MSC_RDPS_SkyTransparencyIndex_EAtm_RLatLon0.09_PT083H.grib2 2026-04-24 03:04 721K
20260424T00Z_MSC_RDPS_Snow-Accum1h_Sfc_RLatLon0.09_PT083H.grib2 2026-04-24 03:04 423K
20260424T00Z_MSC_RDPS_Snow-Accum_Sfc_RLatLon0.09_PT083H.grib2 2026-04-24 03:04 914K
20260424T00Z_MSC_RDPS_SnowDensity_Sfc_RLatLon0.09_PT083H.grib2 2026-04-24 03:04 185K
20260424T00Z_MSC_RDPS_SnowDepth_Sfc_RLatLon0.09_PT083H.grib2 2026-04-24 03:04 736K
20260424T00Z_MSC_RDPS_SoilTemp_DBS-0to10cm_RLatLon0.09_PT083H.grib2 2026-04-24 03:04 241K
20260424T00Z_MSC_RDPS_SoilTemp_Sfc_RLatLon0.09_PT083H.grib2 2026-04-24 03:04 271K
20260424T00Z_MSC_RDPS_SoilVolumetricIceContent_Sfc_RLatLon0.09_PT083H.grib2 2026-04-24 03:04 169K
20260424T00Z_MSC_RDPS_SoilVolumetricWaterContent_DBS-0to10cm_RLatLon0.09_PT083H.grib2 2026-04-24 03:04 260K
20260424T00Z_MSC_RDPS_SoilVolumetricWaterContent_DBS-0to1cm_RLatLon0.09_PT083H.grib2 2026-04-24 03:04 344K
20260424T00Z_MSC_RDPS_SpecificHumidity_AGL-120m_RLatLon0.09_PT083H.grib2 2026-04-24 03:04 489K
20260424T00Z_MSC_RDPS_SpecificHumidity_AGL-2m_RLatLon0.09_PT083H.grib2 2026-04-24 03:04 658K
20260424T00Z_MSC_RDPS_SpecificHumidity_AGL-40m_RLatLon0.09_PT083H.grib2 2026-04-24 03:04 494K
20260424T00Z_MSC_RDPS_SpecificHumidity_AGL-80m_RLatLon0.09_PT083H.grib2 2026-04-24 03:04 491K
20260424T00Z_MSC_RDPS_SpecificHumidity_IsbL-0001_RLatLon0.09_PT083H.grib2 2026-04-24 03:04 336K
20260424T00Z_MSC_RDPS_SpecificHumidity_IsbL-0005_RLatLon0.09_PT083H.grib2 2026-04-24 03:04 405K
20260424T00Z_MSC_RDPS_SpecificHumidity_IsbL-0010_RLatLon0.09_PT083H.grib2 2026-04-24 03:04 383K
20260424T00Z_MSC_RDPS_SpecificHumidity_IsbL-0020_RLatLon0.09_PT083H.grib2 2026-04-24 03:04 449K
20260424T00Z_MSC_RDPS_SpecificHumidity_IsbL-0030_RLatLon0.09_PT083H.grib2 2026-04-24 03:04 430K
20260424T00Z_MSC_RDPS_SpecificHumidity_IsbL-0050_RLatLon0.09_PT083H.grib2 2026-04-24 03:04 486K
20260424T00Z_MSC_RDPS_SpecificHumidity_IsbL-0100_RLatLon0.09_PT083H.grib2 2026-04-24 03:04 414K
20260424T00Z_MSC_RDPS_SpecificHumidity_IsbL-0150_RLatLon0.09_PT083H.grib2 2026-04-24 03:04 346K
20260424T00Z_MSC_RDPS_SpecificHumidity_IsbL-0175_RLatLon0.09_PT083H.grib2 2026-04-24 03:04 442K
20260424T00Z_MSC_RDPS_SpecificHumidity_IsbL-0200_RLatLon0.09_PT083H.grib2 2026-04-24 03:04 452K
20260424T00Z_MSC_RDPS_SpecificHumidity_IsbL-0225_RLatLon0.09_PT083H.grib2 2026-04-24 03:04 447K
20260424T00Z_MSC_RDPS_SpecificHumidity_IsbL-0250_RLatLon0.09_PT083H.grib2 2026-04-24 03:04 551K
20260424T00Z_MSC_RDPS_SpecificHumidity_IsbL-0275_RLatLon0.09_PT083H.grib2 2026-04-24 03:04 464K
20260424T00Z_MSC_RDPS_SpecificHumidity_IsbL-0300_RLatLon0.09_PT083H.grib2 2026-04-24 03:04 532K
20260424T00Z_MSC_RDPS_SpecificHumidity_IsbL-0350_RLatLon0.09_PT083H.grib2 2026-04-24 03:04 524K
20260424T00Z_MSC_RDPS_SpecificHumidity_IsbL-0400_RLatLon0.09_PT083H.grib2 2026-04-24 03:04 513K
20260424T00Z_MSC_RDPS_SpecificHumidity_IsbL-0450_RLatLon0.09_PT083H.grib2 2026-04-24 03:04 571K
20260424T00Z_MSC_RDPS_SpecificHumidity_IsbL-0500_RLatLon0.09_PT083H.grib2 2026-04-24 03:04 508K
20260424T00Z_MSC_RDPS_SpecificHumidity_IsbL-0550_RLatLon0.09_PT083H.grib2 2026-04-24 03:04 560K
20260424T00Z_MSC_RDPS_SpecificHumidity_IsbL-0600_RLatLon0.09_PT083H.grib2 2026-04-24 03:04 625K
20260424T00Z_MSC_RDPS_SpecificHumidity_IsbL-0650_RLatLon0.09_PT083H.grib2 2026-04-24 03:04 542K
20260424T00Z_MSC_RDPS_SpecificHumidity_IsbL-0700_RLatLon0.09_PT083H.grib2 2026-04-24 03:04 588K
20260424T00Z_MSC_RDPS_SpecificHumidity_IsbL-0750_RLatLon0.09_PT083H.grib2 2026-04-24 03:04 647K
20260424T00Z_MSC_RDPS_SpecificHumidity_IsbL-0800_RLatLon0.09_PT083H.grib2 2026-04-24 03:04 725K
20260424T00Z_MSC_RDPS_SpecificHumidity_IsbL-0850_RLatLon0.09_PT083H.grib2 2026-04-24 03:04 805K
20260424T00Z_MSC_RDPS_SpecificHumidity_IsbL-0875_RLatLon0.09_PT083H.grib2 2026-04-24 03:04 825K
20260424T00Z_MSC_RDPS_SpecificHumidity_IsbL-0900_RLatLon0.09_PT083H.grib2 2026-04-24 03:04 833K
20260424T00Z_MSC_RDPS_SpecificHumidity_IsbL-0925_RLatLon0.09_PT083H.grib2 2026-04-24 03:04 834K
20260424T00Z_MSC_RDPS_SpecificHumidity_IsbL-0950_RLatLon0.09_PT083H.grib2 2026-04-24 03:04 831K
20260424T00Z_MSC_RDPS_SpecificHumidity_IsbL-0970_RLatLon0.09_PT083H.grib2 2026-04-24 03:04 823K
20260424T00Z_MSC_RDPS_SpecificHumidity_IsbL-0985_RLatLon0.09_PT083H.grib2 2026-04-24 03:04 678K
20260424T00Z_MSC_RDPS_SpecificHumidity_IsbL-1000_RLatLon0.09_PT083H.grib2 2026-04-24 03:04 675K
20260424T00Z_MSC_RDPS_SpecificHumidity_IsbL-1015_RLatLon0.09_PT083H.grib2 2026-04-24 03:04 667K
20260424T00Z_MSC_RDPS_SpecificHumidity_Sfc_RLatLon0.09_PT083H.grib2 2026-04-24 03:04 292K
20260424T00Z_MSC_RDPS_StormRelativeHelicity_EtaL-10000_RLatLon0.09_PT083H.grib2 2026-04-24 03:04 1.1M
20260424T00Z_MSC_RDPS_StormSeverityIndex_EtaL-10000_RLatLon0.09_PT083H.grib2 2026-04-24 03:04 1.2M
20260424T00Z_MSC_RDPS_Thickness_IsbL-0850to0700_RLatLon0.09_PT083H.grib2 2026-04-24 03:04 175K
20260424T00Z_MSC_RDPS_Thickness_IsbL-1000to0500_RLatLon0.09_PT083H.grib2 2026-04-24 03:04 198K
20260424T00Z_MSC_RDPS_Thickness_IsbL-1000to0850_RLatLon0.09_PT083H.grib2 2026-04-24 03:04 185K
20260424T00Z_MSC_RDPS_TotalCloudCover_Sfc_RLatLon0.09_PT083H.grib2 2026-04-24 03:04 685K
20260424T00Z_MSC_RDPS_TotalTotalsIndex_Sfc_RLatLon0.09_PT083H.grib2 2026-04-24 03:04 2.4M
20260424T00Z_MSC_RDPS_UVIndex-ClearSky_Sfc_RLatLon0.09_PT083H.grib2 2026-04-24 03:04 113K
20260424T00Z_MSC_RDPS_UVIndex_Sfc_RLatLon0.09_PT083H.grib2 2026-04-24 03:04 267K
20260424T00Z_MSC_RDPS_UpwardLongwaveRadiationFlux_NTAtm_RLatLon0.09_PT083H.grib2 2026-04-24 03:04 491K
20260424T00Z_MSC_RDPS_UpwardShortwaveRadiationFlux_NTAtm_RLatLon0.09_PT083H.grib2 2026-04-24 03:04 252K
20260424T00Z_MSC_RDPS_VerticalVelocity_IsbL-0250_RLatLon0.09_PT083H.grib2 2026-04-24 03:04 571K
20260424T00Z_MSC_RDPS_VerticalVelocity_IsbL-0500_RLatLon0.09_PT083H.grib2 2026-04-24 03:04 539K
20260424T00Z_MSC_RDPS_VerticalVelocity_IsbL-0700_RLatLon0.09_PT083H.grib2 2026-04-24 03:04 588K
20260424T00Z_MSC_RDPS_VerticalVelocity_IsbL-0850_RLatLon0.09_PT083H.grib2 2026-04-24 03:04 696K
20260424T00Z_MSC_RDPS_VerticalWindShear_EtaL-6500_RLatLon0.09_PT083H.grib2 2026-04-24 03:04 1.2M
20260424T00Z_MSC_RDPS_WindChill_Sfc_RLatLon0.09_PT083H.grib2 2026-04-24 03:04 1.3M
20260424T00Z_MSC_RDPS_WindDir_AGL-10m_RLatLon0.09_PT083H.grib2 2026-04-24 03:04 1.0M
20260424T00Z_MSC_RDPS_WindDir_AGL-120m_RLatLon0.09_PT083H.grib2 2026-04-24 03:04 624K
20260424T00Z_MSC_RDPS_WindDir_AGL-40m_RLatLon0.09_PT083H.grib2 2026-04-24 03:04 659K
20260424T00Z_MSC_RDPS_WindDir_AGL-80m_RLatLon0.09_PT083H.grib2 2026-04-24 03:04 637K
20260424T00Z_MSC_RDPS_WindDir_IsbL-0001_RLatLon0.09_PT083H.grib2 2026-04-24 03:04 304K
20260424T00Z_MSC_RDPS_WindDir_IsbL-0005_RLatLon0.09_PT083H.grib2 2026-04-24 03:04 360K
20260424T00Z_MSC_RDPS_WindDir_IsbL-0010_RLatLon0.09_PT083H.grib2 2026-04-24 03:04 371K
20260424T00Z_MSC_RDPS_WindDir_IsbL-0020_RLatLon0.09_PT083H.grib2 2026-04-24 03:04 406K
20260424T00Z_MSC_RDPS_WindDir_IsbL-0030_RLatLon0.09_PT083H.grib2 2026-04-24 03:04 420K
20260424T00Z_MSC_RDPS_WindDir_IsbL-0050_RLatLon0.09_PT083H.grib2 2026-04-24 03:04 426K
20260424T00Z_MSC_RDPS_WindDir_IsbL-0100_RLatLon0.09_PT083H.grib2 2026-04-24 03:04 400K
20260424T00Z_MSC_RDPS_WindDir_IsbL-0150_RLatLon0.09_PT083H.grib2 2026-04-24 03:04 400K
20260424T00Z_MSC_RDPS_WindDir_IsbL-0175_RLatLon0.09_PT083H.grib2 2026-04-24 03:04 423K
20260424T00Z_MSC_RDPS_WindDir_IsbL-0200_RLatLon0.09_PT083H.grib2 2026-04-24 03:04 439K
20260424T00Z_MSC_RDPS_WindDir_IsbL-0225_RLatLon0.09_PT083H.grib2 2026-04-24 03:04 446K
20260424T00Z_MSC_RDPS_WindDir_IsbL-0250_RLatLon0.09_PT083H.grib2 2026-04-24 03:04 448K
20260424T00Z_MSC_RDPS_WindDir_IsbL-0275_RLatLon0.09_PT083H.grib2 2026-04-24 03:04 473K
20260424T00Z_MSC_RDPS_WindDir_IsbL-0300_RLatLon0.09_PT083H.grib2 2026-04-24 03:04 471K
20260424T00Z_MSC_RDPS_WindDir_IsbL-0350_RLatLon0.09_PT083H.grib2 2026-04-24 03:04 497K
20260424T00Z_MSC_RDPS_WindDir_IsbL-0400_RLatLon0.09_PT083H.grib2 2026-04-24 03:04 511K
20260424T00Z_MSC_RDPS_WindDir_IsbL-0450_RLatLon0.09_PT083H.grib2 2026-04-24 03:04 522K
20260424T00Z_MSC_RDPS_WindDir_IsbL-0500_RLatLon0.09_PT083H.grib2 2026-04-24 03:04 532K
20260424T00Z_MSC_RDPS_WindDir_IsbL-0550_RLatLon0.09_PT083H.grib2 2026-04-24 03:04 542K
20260424T00Z_MSC_RDPS_WindDir_IsbL-0600_RLatLon0.09_PT083H.grib2 2026-04-24 03:04 575K
20260424T00Z_MSC_RDPS_WindDir_IsbL-0650_RLatLon0.09_PT083H.grib2 2026-04-24 03:04 620K
20260424T00Z_MSC_RDPS_WindDir_IsbL-0700_RLatLon0.09_PT083H.grib2 2026-04-24 03:04 663K
20260424T00Z_MSC_RDPS_WindDir_IsbL-0750_RLatLon0.09_PT083H.grib2 2026-04-24 03:04 715K
20260424T00Z_MSC_RDPS_WindDir_IsbL-0800_RLatLon0.09_PT083H.grib2 2026-04-24 03:04 796K
20260424T00Z_MSC_RDPS_WindDir_IsbL-0850_RLatLon0.09_PT083H.grib2 2026-04-24 03:04 872K
20260424T00Z_MSC_RDPS_WindDir_IsbL-0875_RLatLon0.09_PT083H.grib2 2026-04-24 03:04 896K
20260424T00Z_MSC_RDPS_WindDir_IsbL-0900_RLatLon0.09_PT083H.grib2 2026-04-24 03:04 913K
20260424T00Z_MSC_RDPS_WindDir_IsbL-0925_RLatLon0.09_PT083H.grib2 2026-04-24 03:04 925K
20260424T00Z_MSC_RDPS_WindDir_IsbL-0950_RLatLon0.09_PT083H.grib2 2026-04-24 03:04 931K
20260424T00Z_MSC_RDPS_WindDir_IsbL-0970_RLatLon0.09_PT083H.grib2 2026-04-24 03:04 937K
20260424T00Z_MSC_RDPS_WindDir_IsbL-0985_RLatLon0.09_PT083H.grib2 2026-04-24 03:04 952K
20260424T00Z_MSC_RDPS_WindDir_IsbL-1000_RLatLon0.09_PT083H.grib2 2026-04-24 03:04 972K
20260424T00Z_MSC_RDPS_WindDir_IsbL-1015_RLatLon0.09_PT083H.grib2 2026-04-24 03:04 1.0M
20260424T00Z_MSC_RDPS_WindGust-Max_AGL-10m_RLatLon0.09_PT083H.grib2 2026-04-24 03:04 970K
20260424T00Z_MSC_RDPS_WindGust-Min_AGL-10m_RLatLon0.09_PT083H.grib2 2026-04-24 03:04 927K
20260424T00Z_MSC_RDPS_WindGust_AGL-10m_RLatLon0.09_PT083H.grib2 2026-04-24 03:04 952K
20260424T00Z_MSC_RDPS_WindSpeed_AGL-10m_RLatLon0.09_PT083H.grib2 2026-04-24 03:04 859K
20260424T00Z_MSC_RDPS_WindSpeed_AGL-120m_RLatLon0.09_PT083H.grib2 2026-04-24 03:04 562K
20260424T00Z_MSC_RDPS_WindSpeed_AGL-40m_RLatLon0.09_PT083H.grib2 2026-04-24 03:04 566K
20260424T00Z_MSC_RDPS_WindSpeed_AGL-80m_RLatLon0.09_PT083H.grib2 2026-04-24 03:04 564K
20260424T00Z_MSC_RDPS_WindSpeed_IsbL-0001_RLatLon0.09_PT083H.grib2 2026-04-24 03:04 252K
20260424T00Z_MSC_RDPS_WindSpeed_IsbL-0005_RLatLon0.09_PT083H.grib2 2026-04-24 03:04 298K
20260424T00Z_MSC_RDPS_WindSpeed_IsbL-0010_RLatLon0.09_PT083H.grib2 2026-04-24 03:04 311K
20260424T00Z_MSC_RDPS_WindSpeed_IsbL-0020_RLatLon0.09_PT083H.grib2 2026-04-24 03:04 427K
20260424T00Z_MSC_RDPS_WindSpeed_IsbL-0030_RLatLon0.09_PT083H.grib2 2026-04-24 03:04 325K
20260424T00Z_MSC_RDPS_WindSpeed_IsbL-0050_RLatLon0.09_PT083H.grib2 2026-04-24 03:04 359K
20260424T00Z_MSC_RDPS_WindSpeed_IsbL-0100_RLatLon0.09_PT083H.grib2 2026-04-24 03:04 472K
20260424T00Z_MSC_RDPS_WindSpeed_IsbL-0150_RLatLon0.09_PT083H.grib2 2026-04-24 03:04 370K
20260424T00Z_MSC_RDPS_WindSpeed_IsbL-0175_RLatLon0.09_PT083H.grib2 2026-04-24 03:04 400K
20260424T00Z_MSC_RDPS_WindSpeed_IsbL-0200_RLatLon0.09_PT083H.grib2 2026-04-24 03:04 438K
20260424T00Z_MSC_RDPS_WindSpeed_IsbL-0225_RLatLon0.09_PT083H.grib2 2026-04-24 03:04 444K
20260424T00Z_MSC_RDPS_WindSpeed_IsbL-0250_RLatLon0.09_PT083H.grib2 2026-04-24 03:04 446K
20260424T00Z_MSC_RDPS_WindSpeed_IsbL-0275_RLatLon0.09_PT083H.grib2 2026-04-24 03:04 464K
20260424T00Z_MSC_RDPS_WindSpeed_IsbL-0300_RLatLon0.09_PT083H.grib2 2026-04-24 03:04 461K
20260424T00Z_MSC_RDPS_WindSpeed_IsbL-0350_RLatLon0.09_PT083H.grib2 2026-04-24 03:04 455K
20260424T00Z_MSC_RDPS_WindSpeed_IsbL-0400_RLatLon0.09_PT083H.grib2 2026-04-24 03:04 459K
20260424T00Z_MSC_RDPS_WindSpeed_IsbL-0450_RLatLon0.09_PT083H.grib2 2026-04-24 03:04 458K
20260424T00Z_MSC_RDPS_WindSpeed_IsbL-0500_RLatLon0.09_PT083H.grib2 2026-04-24 03:04 574K
20260424T00Z_MSC_RDPS_WindSpeed_IsbL-0550_RLatLon0.09_PT083H.grib2 2026-04-24 03:04 574K
20260424T00Z_MSC_RDPS_WindSpeed_IsbL-0600_RLatLon0.09_PT083H.grib2 2026-04-24 03:04 585K
20260424T00Z_MSC_RDPS_WindSpeed_IsbL-0650_RLatLon0.09_PT083H.grib2 2026-04-24 03:04 606K
20260424T00Z_MSC_RDPS_WindSpeed_IsbL-0700_RLatLon0.09_PT083H.grib2 2026-04-24 03:04 671K
20260424T00Z_MSC_RDPS_WindSpeed_IsbL-0750_RLatLon0.09_PT083H.grib2 2026-04-24 03:04 705K
20260424T00Z_MSC_RDPS_WindSpeed_IsbL-0800_RLatLon0.09_PT083H.grib2 2026-04-24 03:04 714K
20260424T00Z_MSC_RDPS_WindSpeed_IsbL-0850_RLatLon0.09_PT083H.grib2 2026-04-24 03:04 772K
20260424T00Z_MSC_RDPS_WindSpeed_IsbL-0875_RLatLon0.09_PT083H.grib2 2026-04-24 03:04 794K
20260424T00Z_MSC_RDPS_WindSpeed_IsbL-0900_RLatLon0.09_PT083H.grib2 2026-04-24 03:04 809K
20260424T00Z_MSC_RDPS_WindSpeed_IsbL-0925_RLatLon0.09_PT083H.grib2 2026-04-24 03:04 821K
20260424T00Z_MSC_RDPS_WindSpeed_IsbL-0950_RLatLon0.09_PT083H.grib2 2026-04-24 03:04 825K
20260424T00Z_MSC_RDPS_WindSpeed_IsbL-0970_RLatLon0.09_PT083H.grib2 2026-04-24 03:04 871K
20260424T00Z_MSC_RDPS_WindSpeed_IsbL-0985_RLatLon0.09_PT083H.grib2 2026-04-24 03:04 870K
20260424T00Z_MSC_RDPS_WindSpeed_IsbL-1000_RLatLon0.09_PT083H.grib2 2026-04-24 03:04 868K
20260424T00Z_MSC_RDPS_WindSpeed_IsbL-1015_RLatLon0.09_PT083H.grib2 2026-04-24 03:04 858K
20260424T00Z_MSC_RDPS_WindU_AGL-10m_RLatLon0.09_PT083H.grib2 2026-04-24 03:04 390K
20260424T00Z_MSC_RDPS_WindU_AGL-120m_RLatLon0.09_PT083H.grib2 2026-04-24 03:04 444K
20260424T00Z_MSC_RDPS_WindU_AGL-40m_RLatLon0.09_PT083H.grib2 2026-04-24 03:04 431K
20260424T00Z_MSC_RDPS_WindU_AGL-80m_RLatLon0.09_PT083H.grib2 2026-04-24 03:04 429K
20260424T00Z_MSC_RDPS_WindU_IsbL-0001_RLatLon0.09_PT083H.grib2 2026-04-24 03:04 267K
20260424T00Z_MSC_RDPS_WindU_IsbL-0005_RLatLon0.09_PT083H.grib2 2026-04-24 03:04 333K
20260424T00Z_MSC_RDPS_WindU_IsbL-0010_RLatLon0.09_PT083H.grib2 2026-04-24 03:04 302K
20260424T00Z_MSC_RDPS_WindU_IsbL-0020_RLatLon0.09_PT083H.grib2 2026-04-24 03:04 358K
20260424T00Z_MSC_RDPS_WindU_IsbL-0030_RLatLon0.09_PT083H.grib2 2026-04-24 03:04 357K
20260424T00Z_MSC_RDPS_WindU_IsbL-0050_RLatLon0.09_PT083H.grib2 2026-04-24 03:04 387K
20260424T00Z_MSC_RDPS_WindU_IsbL-0100_RLatLon0.09_PT083H.grib2 2026-04-24 03:04 430K
20260424T00Z_MSC_RDPS_WindU_IsbL-0150_RLatLon0.09_PT083H.grib2 2026-04-24 03:04 387K
20260424T00Z_MSC_RDPS_WindU_IsbL-0175_RLatLon0.09_PT083H.grib2 2026-04-24 03:04 415K
20260424T00Z_MSC_RDPS_WindU_IsbL-0200_RLatLon0.09_PT083H.grib2 2026-04-24 03:04 430K
20260424T00Z_MSC_RDPS_WindU_IsbL-0225_RLatLon0.09_PT083H.grib2 2026-04-24 03:04 435K
20260424T00Z_MSC_RDPS_WindU_IsbL-0250_RLatLon0.09_PT083H.grib2 2026-04-24 03:04 338K
20260424T00Z_MSC_RDPS_WindU_IsbL-0275_RLatLon0.09_PT083H.grib2 2026-04-24 03:04 352K
20260424T00Z_MSC_RDPS_WindU_IsbL-0300_RLatLon0.09_PT083H.grib2 2026-04-24 03:04 348K
20260424T00Z_MSC_RDPS_WindU_IsbL-0350_RLatLon0.09_PT083H.grib2 2026-04-24 03:04 357K
20260424T00Z_MSC_RDPS_WindU_IsbL-0400_RLatLon0.09_PT083H.grib2 2026-04-24 03:04 464K
20260424T00Z_MSC_RDPS_WindU_IsbL-0450_RLatLon0.09_PT083H.grib2 2026-04-24 03:04 464K
20260424T00Z_MSC_RDPS_WindU_IsbL-0500_RLatLon0.09_PT083H.grib2 2026-04-24 03:04 464K
20260424T00Z_MSC_RDPS_WindU_IsbL-0550_RLatLon0.09_PT083H.grib2 2026-04-24 03:04 465K
20260424T00Z_MSC_RDPS_WindU_IsbL-0600_RLatLon0.09_PT083H.grib2 2026-04-24 03:04 474K
20260424T00Z_MSC_RDPS_WindU_IsbL-0650_RLatLon0.09_PT083H.grib2 2026-04-24 03:04 491K
20260424T00Z_MSC_RDPS_WindU_IsbL-0700_RLatLon0.09_PT083H.grib2 2026-04-24 03:04 510K
20260424T00Z_MSC_RDPS_WindU_IsbL-0750_RLatLon0.09_PT083H.grib2 2026-04-24 03:04 539K
20260424T00Z_MSC_RDPS_WindU_IsbL-0800_RLatLon0.09_PT083H.grib2 2026-04-24 03:04 585K
20260424T00Z_MSC_RDPS_WindU_IsbL-0850_RLatLon0.09_PT083H.grib2 2026-04-24 03:04 635K
20260424T00Z_MSC_RDPS_WindU_IsbL-0875_RLatLon0.09_PT083H.grib2 2026-04-24 03:04 652K
20260424T00Z_MSC_RDPS_WindU_IsbL-0900_RLatLon0.09_PT083H.grib2 2026-04-24 03:04 663K
20260424T00Z_MSC_RDPS_WindU_IsbL-0925_RLatLon0.09_PT083H.grib2 2026-04-24 03:04 670K
20260424T00Z_MSC_RDPS_WindU_IsbL-0950_RLatLon0.09_PT083H.grib2 2026-04-24 03:04 671K
20260424T00Z_MSC_RDPS_WindU_IsbL-0970_RLatLon0.09_PT083H.grib2 2026-04-24 03:04 662K
20260424T00Z_MSC_RDPS_WindU_IsbL-0985_RLatLon0.09_PT083H.grib2 2026-04-24 03:04 662K
20260424T00Z_MSC_RDPS_WindU_IsbL-1000_RLatLon0.09_PT083H.grib2 2026-04-24 03:04 661K
20260424T00Z_MSC_RDPS_WindU_IsbL-1015_RLatLon0.09_PT083H.grib2 2026-04-24 03:04 656K
20260424T00Z_MSC_RDPS_WindV_AGL-10m_RLatLon0.09_PT083H.grib2 2026-04-24 03:04 390K
20260424T00Z_MSC_RDPS_WindV_AGL-120m_RLatLon0.09_PT083H.grib2 2026-04-24 03:04 427K
20260424T00Z_MSC_RDPS_WindV_AGL-40m_RLatLon0.09_PT083H.grib2 2026-04-24 03:04 430K
20260424T00Z_MSC_RDPS_WindV_AGL-80m_RLatLon0.09_PT083H.grib2 2026-04-24 03:04 429K
20260424T00Z_MSC_RDPS_WindV_IsbL-0001_RLatLon0.09_PT083H.grib2 2026-04-24 03:04 291K
20260424T00Z_MSC_RDPS_WindV_IsbL-0005_RLatLon0.09_PT083H.grib2 2026-04-24 03:04 331K
20260424T00Z_MSC_RDPS_WindV_IsbL-0010_RLatLon0.09_PT083H.grib2 2026-04-24 03:04 303K
20260424T00Z_MSC_RDPS_WindV_IsbL-0020_RLatLon0.09_PT083H.grib2 2026-04-24 03:04 321K
20260424T00Z_MSC_RDPS_WindV_IsbL-0030_RLatLon0.09_PT083H.grib2 2026-04-24 03:04 320K
20260424T00Z_MSC_RDPS_WindV_IsbL-0050_RLatLon0.09_PT083H.grib2 2026-04-24 03:04 351K
20260424T00Z_MSC_RDPS_WindV_IsbL-0100_RLatLon0.09_PT083H.grib2 2026-04-24 03:04 328K
20260424T00Z_MSC_RDPS_WindV_IsbL-0150_RLatLon0.09_PT083H.grib2 2026-04-24 03:04 386K
20260424T00Z_MSC_RDPS_WindV_IsbL-0175_RLatLon0.09_PT083H.grib2 2026-04-24 03:04 318K
20260424T00Z_MSC_RDPS_WindV_IsbL-0200_RLatLon0.09_PT083H.grib2 2026-04-24 03:04 333K
20260424T00Z_MSC_RDPS_WindV_IsbL-0225_RLatLon0.09_PT083H.grib2 2026-04-24 03:04 363K
20260424T00Z_MSC_RDPS_WindV_IsbL-0250_RLatLon0.09_PT083H.grib2 2026-04-24 03:04 363K
20260424T00Z_MSC_RDPS_WindV_IsbL-0275_RLatLon0.09_PT083H.grib2 2026-04-24 03:04 375K
20260424T00Z_MSC_RDPS_WindV_IsbL-0300_RLatLon0.09_PT083H.grib2 2026-04-24 03:04 346K
20260424T00Z_MSC_RDPS_WindV_IsbL-0350_RLatLon0.09_PT083H.grib2 2026-04-24 03:04 354K
20260424T00Z_MSC_RDPS_WindV_IsbL-0400_RLatLon0.09_PT083H.grib2 2026-04-24 03:04 356K
20260424T00Z_MSC_RDPS_WindV_IsbL-0450_RLatLon0.09_PT083H.grib2 2026-04-24 03:04 458K
20260424T00Z_MSC_RDPS_WindV_IsbL-0500_RLatLon0.09_PT083H.grib2 2026-04-24 03:04 458K
20260424T00Z_MSC_RDPS_WindV_IsbL-0550_RLatLon0.09_PT083H.grib2 2026-04-24 03:04 458K
20260424T00Z_MSC_RDPS_WindV_IsbL-0600_RLatLon0.09_PT083H.grib2 2026-04-24 03:04 467K
20260424T00Z_MSC_RDPS_WindV_IsbL-0650_RLatLon0.09_PT083H.grib2 2026-04-24 03:04 486K
20260424T00Z_MSC_RDPS_WindV_IsbL-0700_RLatLon0.09_PT083H.grib2 2026-04-24 03:04 505K
20260424T00Z_MSC_RDPS_WindV_IsbL-0750_RLatLon0.09_PT083H.grib2 2026-04-24 03:04 533K
20260424T00Z_MSC_RDPS_WindV_IsbL-0800_RLatLon0.09_PT083H.grib2 2026-04-24 03:04 579K
20260424T00Z_MSC_RDPS_WindV_IsbL-0850_RLatLon0.09_PT083H.grib2 2026-04-24 03:04 620K
20260424T00Z_MSC_RDPS_WindV_IsbL-0875_RLatLon0.09_PT083H.grib2 2026-04-24 03:04 639K
20260424T00Z_MSC_RDPS_WindV_IsbL-0900_RLatLon0.09_PT083H.grib2 2026-04-24 03:04 660K
20260424T00Z_MSC_RDPS_WindV_IsbL-0925_RLatLon0.09_PT083H.grib2 2026-04-24 03:04 667K
20260424T00Z_MSC_RDPS_WindV_IsbL-0950_RLatLon0.09_PT083H.grib2 2026-04-24 03:04 669K
20260424T00Z_MSC_RDPS_WindV_IsbL-0970_RLatLon0.09_PT083H.grib2 2026-04-24 03:04 662K
20260424T00Z_MSC_RDPS_WindV_IsbL-0985_RLatLon0.09_PT083H.grib2 2026-04-24 03:04 661K
20260424T00Z_MSC_RDPS_WindV_IsbL-1000_RLatLon0.09_PT083H.grib2 2026-04-24 03:04 659K
20260424T00Z_MSC_RDPS_WindV_IsbL-1015_RLatLon0.09_PT083H.grib2 2026-04-24 03:04 654K